When you browse on this site, cookies collect data to enhance your experience and personalize the content and advertising you see.
Visit our Privacy Policy to learn more. By continuing to use the site, you agree to this use of cookies and data.
  • In Latvia
  • List of Countries
  • For 7 days
  • Water Temperature
  • Satellite Maps
  • Weather Map
  • Weather Widgets
  • user-avatar
    Login

    Hourly Weather Ghazni

    Today, 21 February, Thursday

    Time Temperature Precipitation Wind Pressure Humidity
    00:00 -1°C° 0.1 mm 1 mps 579 mmHg 92%
    01:00 -4°C° 0.1 mm 2 mps 579 mmHg 93%
    02:00 -4°C° 0.1 mm 2 mps 579 mmHg 95%
    03:00 -4°C° 0.1 mm 2 mps 580 mmHg 94%
    04:00 -5°C° 0.1 mm 3 mps 580 mmHg 93%
    05:00 -5°C° 0.1 mm 3 mps 580 mmHg 92%
    06:00 -6°C° 0 mm 3 mps 581 mmHg 89%
    07:00 -7°C° 0 mm 3 mps 581 mmHg 85%
    08:00 -8°C° 0 mm 3 mps 581 mmHg 82%
    09:00 -6°C° 0 mm 3 mps 581 mmHg 78%
    10:00 -4°C° 0 mm 2 mps 582 mmHg 74%
    11:00 -2°C° 0 mm 2 mps 583 mmHg 71%
    12:00 -2°C° 0 mm 2 mps 582 mmHg 74%
    13:00 -2°C° 0 mm 2 mps 582 mmHg 78%
    14:00 -1°C° 0 mm 2 mps 582 mmHg 81%
    15:00 -2°C° 0 mm 2 mps 582 mmHg 84%
    16:00 -2°C° 0 mm 2 mps 582 mmHg 86%
    17:00 -3°C° 0 mm 2 mps 582 mmHg 88%
    18:00 -4°C° 0 mm 2 mps 582 mmHg 87%
    19:00 -4°C° 0 mm 1 mps 582 mmHg 87%
    20:00 -7°C° 0 mm 1 mps 583 mmHg 86%
    21:00 -7°C° 0 mm 1 mps 583 mmHg 83%
    22:00 -7°C° 0 mm 1 mps 583 mmHg 79%
    23:00 -9°C° 0 mm 2 mps 584 mmHg 75%

    Tomorrow, 22 February, Friday

    Time Temperature Precipitation Wind Pressure Humidity
    00:00 -9°C° 0 mm 2 mps 584 mmHg 72%
    01:00 -9°C° 0 mm 2 mps 584 mmHg 68%
    02:00 -10°C° 0 mm 2 mps 583 mmHg 65%
    03:00 -10°C° 0 mm 2 mps 583 mmHg 62%
    04:00 -12°C° 0 mm 2 mps 583 mmHg 58%
    05:00 -12°C° 0 mm 2 mps 582 mmHg 55%
    06:00 -12°C° 0 mm 2 mps 583 mmHg 53%
    07:00 -12°C° 0 mm 2 mps 583 mmHg 50%
    08:00 -12°C° 0 mm 2 mps 583 mmHg 47%
    09:00 -9°C° 0 mm 2 mps 584 mmHg 49%
    10:00 -6°C° 0 mm 1 mps 584 mmHg 51%
    11:00 -3°C° 0 mm 1 mps 585 mmHg 53%
    12:00 -2°C° 0 mm 1 mps 584 mmHg 56%
    13:00 -1°C° 0 mm 1 mps 584 mmHg 59%
    14:00 0°C° 0 mm 1 mps 583 mmHg 62%
    15:00 -1°C° 0 mm 1 mps 583 mmHg 65%
    16:00 -2°C° 0 mm 1 mps 583 mmHg 68%
    17:00 -3°C° 0 mm 0 mps 582 mmHg 70%
    18:00 -4°C° 0 mm 1 mps 583 mmHg 67%
    19:00 -6°C° 0 mm 1 mps 583 mmHg 64%
    20:00 -8°C° 0 mm 2 mps 583 mmHg 61%
    21:00 -9°C° 0 mm 2 mps 583 mmHg 59%
    22:00 -9°C° 0 mm 2 mps 584 mmHg 56%
    23:00 -9°C° 0 mm 2 mps 584 mmHg 53%

    Day after tomorrow, 23 February, Saturday

    Time Temperature Precipitation Wind Pressure Humidity
    00:00 -9°C° 0 mm 2 mps 583 mmHg 52%
    01:00 -10°C° 0 mm 2 mps 583 mmHg 50%
    02:00 -10°C° 0 mm 2 mps 583 mmHg 49%
    03:00 -10°C° 0 mm 2 mps 583 mmHg 48%
    04:00 -10°C° 0 mm 2 mps 582 mmHg 47%
    05:00 -10°C° 0 mm 2 mps 582 mmHg 46%
    06:00 -10°C° 0 mm 2 mps 582 mmHg 46%
    07:00 -10°C° 0 mm 2 mps 582 mmHg 46%
    08:00 -9°C° 0 mm 2 mps 582 mmHg 46%
    09:00 -7°C° 0 mm 2 mps 583 mmHg 48%
    10:00 -3°C° 0 mm 1 mps 583 mmHg 49%
    11:00 -1°C° 0 mm 1 mps 584 mmHg 51%
    12:00 -1°C° 0 mm 1 mps 583 mmHg 55%
    13:00 0°C° 0 mm 1 mps 582 mmHg 59%
    14:00 +1°C° 0 mm 1 mps 582 mmHg 63%
    15:00 0°C° 0 mm 1 mps 581 mmHg 65%
    16:00 -1°C° 0 mm 1 mps 581 mmHg 66%
    17:00 -3°C° 0 mm 0 mps 580 mmHg 68%
    18:00 -3°C° 0 mm 1 mps 580 mmHg 65%
    19:00 -4°C° 0 mm 1 mps 580 mmHg 63%
    20:00 -6°C° 0 mm 1 mps 581 mmHg 60%
    21:00 -8°C° 0 mm 2 mps 581 mmHg 59%
    22:00 -8°C° 0 mm 2 mps 581 mmHg 58%
    23:00 -9°C° 0 mm 2 mps 581 mmHg 57%

    24 February, Sunday

    Time Temperature Precipitation Wind Pressure Humidity
    00:00 -9°C° 0 mm 2 mps 581 mmHg 56%
    01:00 -9°C° 0 mm 2 mps 581 mmHg 54%
    02:00 -9°C° 0 mm 2 mps 580 mmHg 53%
    03:00 -10°C° 0 mm 2 mps 580 mmHg 53%
    04:00 -10°C° 0 mm 2 mps 580 mmHg 53%
    05:00 -10°C° 0 mm 2 mps 580 mmHg 52%
    06:00 -10°C° 0 mm 2 mps 580 mmHg 53%
    07:00 -10°C° 0 mm 2 mps 580 mmHg 54%
    08:00 -10°C° 0 mm 2 mps 581 mmHg 55%
    09:00 -8°C° 0 mm 2 mps 581 mmHg 57%
    10:00 -6°C° 0 mm 2 mps 581 mmHg 58%
    11:00 -2°C° 0 mm 1 mps 582 mmHg 60%
    12:00 -1°C° 0 mm 1 mps 581 mmHg 62%
    13:00 0°C° 0 mm 1 mps 581 mmHg 65%
    14:00 0°C° 0 mm 1 mps 580 mmHg 67%
    15:00 -1°C° 0 mm 1 mps 580 mmHg 69%
    16:00 -1°C° 0 mm 1 mps 580 mmHg 71%
    17:00 -2°C° 0 mm 1 mps 579 mmHg 73%
    18:00 -3°C° 0 mm 1 mps 579 mmHg 71%
    19:00 -6°C° 0 mm 1 mps 580 mmHg 69%
    20:00 -8°C° 0 mm 2 mps 580 mmHg 66%
    21:00 -9°C° 0 mm 2 mps 580 mmHg 65%
    22:00 -9°C° 0 mm 2 mps 580 mmHg 63%
    23:00 -9°C° 0 mm 2 mps 580 mmHg 61%

    25 February, Monday

    Time Temperature Precipitation Wind Pressure Humidity
    00:00 -12°C° 0 mm 3 mps 580 mmHg 60%
    01:00 -12°C° 0 mm 3 mps 580 mmHg 58%
    02:00 -12°C° 0 mm 3 mps 580 mmHg 57%
    03:00 -13°C° 0 mm 3 mps 579 mmHg 57%
    04:00 -13°C° 0 mm 3 mps 579 mmHg 57%
    05:00 -13°C° 0 mm 3 mps 579 mmHg 57%
    06:00 -13°C° 0 mm 3 mps 579 mmHg 58%
    07:00 -13°C° 0 mm 3 mps 580 mmHg 59%
    08:00 -13°C° 0 mm 3 mps 580 mmHg 60%
    09:00 -9°C° 0 mm 2 mps 581 mmHg 60%
    10:00 -7°C° 0 mm 2 mps 581 mmHg 60%
    11:00 -4°C° 0 mm 2 mps 581 mmHg 61%
    12:00 -4°C° 0 mm 2 mps 581 mmHg 62%
    13:00 -3°C° 0 mm 2 mps 581 mmHg 63%
    14:00 -2°C° 0 mm 2 mps 580 mmHg 64%
    15:00 -3°C° 0 mm 2 mps 580 mmHg 66%
    16:00 -1°C° 0 mm 1 mps 580 mmHg 67%
    17:00 -2°C° 0 mm 1 mps 579 mmHg 68%
    18:00 -5°C° 0 mm 2 mps 579 mmHg 66%
    19:00 -7°C° 0 mm 2 mps 580 mmHg 64%
    20:00 -9°C° 0 mm 3 mps 580 mmHg 62%
    21:00 -10°C° 0 mm 3 mps 580 mmHg 61%
    22:00 -10°C° 0 mm 3 mps 580 mmHg 60%
    23:00 -12°C° 0 mm 3 mps 580 mmHg 59%

    26 February, Tuesday

    Time Temperature Precipitation Wind Pressure Humidity
    00:00 -12°C° 0 mm 3 mps 580 mmHg 58%
    01:00 -13°C° 0 mm 3 mps 580 mmHg 58%
    02:00 -13°C° 0 mm 3 mps 580 mmHg 57%
    03:00 -13°C° 0 mm 3 mps 580 mmHg 56%
    04:00 -13°C° 0 mm 3 mps 580 mmHg 55%
    05:00 -14°C° 0 mm 3 mps 579 mmHg 55%
    06:00 -13°C° 0 mm 2 mps 580 mmHg 54%
    07:00 -13°C° 0 mm 2 mps 580 mmHg 53%
    08:00 -13°C° 0 mm 2 mps 580 mmHg 52%
    09:00 -9°C° 0 mm 2 mps 581 mmHg 53%
    10:00 -7°C° 0 mm 2 mps 581 mmHg 53%
    11:00 -3°C° 0 mm 1 mps 581 mmHg 54%
    12:00 -2°C° 0 mm 1 mps 581 mmHg 56%
    13:00 -2°C° 0 mm 1 mps 580 mmHg 59%
    14:00 -1°C° 0 mm 1 mps 580 mmHg 61%
    15:00 -2°C° 0 mm 1 mps 579 mmHg 65%
    16:00 -3°C° 0 mm 1 mps 579 mmHg 68%
    17:00 -3°C° 0 mm 1 mps 578 mmHg 72%
    18:00 -6°C° 0 mm 1 mps 578 mmHg 67%
    19:00 -7°C° 0 mm 1 mps 578 mmHg 63%
    20:00 -8°C° 0 mm 1 mps 579 mmHg 59%
    21:00 -9°C° 0 mm 1 mps 579 mmHg 56%
    22:00 -9°C° 0 mm 1 mps 579 mmHg 52%
    23:00 -9°C° 0 mm 1 mps 579 mmHg 49%
    Show more